Flag for U.S.A. Weather past 2 weeks in McAllen, Texas, U.S.A.

Now
82 °F

Partly sunny.


Feels Like: 84 °F
Forecast: 68 / 83 °F
Wind: 20 mph from Southeast

Location: Miller International Airport

Current Time: Mar 30, 2015 at 7:20:34 PM

Latest Report: Mar 30, 2015 at 6:53 PM


Visibility: 10 mi

Pressure: 30.04 "Hg

Humidity: 56%

Dew point: 65 °F

Location of McAllenLocation

Historic Weather in McAllen — Graph

°F

McAllen temperature yesterday

Maximum temperature yesterday: 86 °F (at 1:53 PM)
Minimum temperature yesterday: 63 °F (at 6:53 AM)
Average temperature yesterday: 74 °F

Past Weeks' High & Low Weather Summary

 TemperatureHumidityPressure
High87 °F (Mar 23, 4:53 PM)94% (Mar 17, 6:53 AM)30.27 "Hg (Mar 17, 6:53 AM)
Low53 °F (Mar 28, 6:53 AM)17% (Mar 27, 3:53 PM)29.80 "Hg (Mar 26, 4:53 AM)
Average72 °F77%30.04 "Hg
* Reported Mar 15 5:53 PM — Mar 30 5:53 PM, McAllen, Weather by CustomWeather, © 2015

Note: Actual official high and low records may vary slightly from our data, if they occured in-between our weather recording intervals... More about our weather records

Advertising

McAllen weather history for previous 24 hours

 ConditionsComfort  
Time TempWeatherWind HumidityBarometerVisibility
5:53 PM
Mon, Mar 30
84 °FSunny.16 mph53%30.03 "Hg10 mi
4:53 PM85 °FScattered clouds.17 mph51%30.04 "Hg10 mi
3:53 PM86 °FPassing clouds.16 mph49%30.06 "Hg10 mi
2:53 PM87 °FScattered clouds.16 mph50%30.09 "Hg10 mi
1:53 PM86 °FPartly sunny.17 mph51%30.11 "Hg10 mi
12:53 PM85 °FScattered clouds.14 mph51%30.13 "Hg10 mi
11:53 AM82 °FScattered clouds.20 mph56%30.14 "Hg10 mi
10:53 AM80 °FPartly sunny.21 mph64%30.14 "Hg10 mi
9:53 AM74 °FOvercast.21 mph79%30.12 "Hg10 mi
8:53 AM72 °FMostly cloudy.14 mph84%30.11 "Hg10 mi
7:53 AM70 °FPassing clouds.10 mph87%30.10 "Hg10 mi
6:53 AM71 °FOvercast.14 mph84%30.08 "Hg10 mi
5:53 AM72 °FOvercast.16 mph84%30.05 "Hg10 mi
4:53 AM72 °FMostly cloudy.17 mph84%30.05 "Hg10 mi
3:53 AM71 °FLow clouds.17 mph87%30.04 "Hg10 mi
2:53 AM71 °FLow clouds.16 mph84%30.06 "Hg10 mi
1:53 AM70 °FPassing clouds.13 mph87%30.09 "Hg10 mi
12:53 AM71 °FClear.13 mph81%30.10 "Hg10 mi
11:53 PM
Sun, Mar 29
71 °FClear.14 mph81%30.11 "Hg10 mi
10:53 PM72 °FClear.16 mph78%30.11 "Hg10 mi
9:53 PM73 °FClear.17 mph76%30.09 "Hg10 mi
8:53 PM73 °FClear.16 mph74%30.08 "Hg10 mi
7:53 PM75 °FSunny.18 mph69%30.06 "Hg10 mi
Weather by CustomWeather, © 2015

See weather overviewHow to use our weather pages